[[{"header":{"parameterUnit":"m.s-1","parameterCategory":1,"la1":30.2991,"la2":30.254,"lo1":-89.0895,"lo2":-89.0444,"dy":0.0017,"dx":0.0017,"nx":28,"ny":28,"refTime":"2025-08-13T03:00:00:Z","depth":0,"parameterNumber":2,"parameterNumberName":"U-component_of_WINDS"},"data":[0,0,0,0,0,0,0,0,0,0,0,0,0,0,0,0,0,0,0,0,0,0,0,0,0,0,0,0,0,0,0,0,0,0,0,0,0,0,0,0,0,0,0,0,0,0,0,0,0,0,0,0,0,0,0,0,0,0,-2.0338,-2.0337,0,-2.0279,-2.0278,-2.0277,-2.0254,-2.0254,-2.0255,-2.0255,-2.0193,-2.0191,-2.0189,0,0,0,0,0,0,0,0,0,0,0,0,0,-2.0429,-2.0427,-2.0338,-2.0337,-2.0337,-2.0279,-2.0278,-2.0277,-2.0254,-2.0254,-2.0255,-2.0255,-2.0193,-2.0191,-2.0189,0,0,0,0,0,0,0,0,0,0,0,0,0,-2.0381,-2.0427,-2.0338,-2.0318,-2.0316,-2.0279,-2.0278,-2.0277,-2.0254,-2.0254,-2.0255,-2.0255,-2.0194,-2.0191,-2.0189,-2.0167,0,0,-2.018,-2.0179,0,0,0,0,0,0,0,0,-2.0384,-2.0378,-2.0322,-2.032,-2.0317,-2.0274,-2.0287,-2.024,-2.0254,-2.0278,-2.0255,-2.0255,-2.022,-2.0215,-2.0203,-2.0164,-2.0161,-2.018,-2.0179,-2.0177,-2.0177,0,0,0,0,0,0,0,-2.0387,-2.038,-2.0315,-2.0321,-2.0318,-2.0311,-2.0305,-2.0278,-2.0248,-2.0276,-2.0274,-2.0267,-2.0218,-2.0206,-2.0201,-2.016,-2.018,-2.0178,-2.0176,-2.0175,-2.0098,-2.0098,0,0,0,0,0,0,-2.0394,-2.0383,-2.0316,-2.0313,-2.0352,-2.0309,-2.0302,-2.0288,-2.0248,-2.0242,-2.0267,-2.0266,-2.021,-2.0205,-2.0199,-2.0169,-2.0177,-2.0175,-2.0173,-2.0099,-2.0098,-2.0098,0,0,0,0,0,0,-2.0396,-2.0388,-2.0319,-2.0347,-2.0338,-2.0308,-2.0291,-2.0286,-2.0274,-2.0242,-2.0236,-2.026,-2.021,-2.0203,-2.0175,-2.0167,-2.0174,-2.0171,-2.0099,-2.0099,-2.0098,-2.0111,0,0,0,0,0,0,-2.0399,-2.0389,-2.0382,-2.0348,-2.0337,-2.0296,-2.0291,-2.0285,-2.0269,-2.0268,-2.0233,-2.0228,-2.021,-2.0179,-2.0172,-2.0163,-2.0169,-2.01,-2.0099,-2.0098,-2.0111,-2.0111,-2.0111,0,0,0,0,0,-2.0402,-2.0388,-2.0381,-2.0373,-2.0326,-2.0296,-2.029,-2.0269,-2.0269,-2.026,-2.0239,-2.0229,-2.0169,-2.0176,-2.0168,-2.0159,-2.01,-2.0099,-2.0098,-2.0111,-2.0111,-2.0111,0,0,0,0,0,0,-2.0422,-2.0383,-2.0375,-2.035,-2.0326,-2.0292,-2.0281,-2.027,-2.0246,-2.0246,-2.0221,-2.0213,-2.0187,-2.017,-2.0179,-2.0134,-2.0134,-2.0131,-2.0146,-2.0146,-2.0146,-2.015,-2.0167,0,0,0,0,0,-2.0423,-2.0402,-2.0369,-2.035,-2.0338,-2.0312,-2.0298,-2.0284,-2.0258,-2.0248,-2.0225,-2.02,-2.0176,-2.016,-2.0136,-2.0109,-2.01,-2.0098,-2.0098,-2.0098,-2.0096,-2.0078,-2.0076,-2.0095,-2.0095,-2.0095,0,0,-2.0426,-2.0402,-2.039,-2.0353,-2.0333,-2.0311,-2.0303,-2.0281,-2.0264,-2.0245,-2.0216,-2.0198,-2.0169,-2.0141,-2.0127,-2.0126,-2.0089,-2.0097,-2.0097,-2.0095,-2.0077,-2.0075,-2.0074,-2.0094,-2.0094,-2.0094,0,0,-2.0418,-2.0399,-2.038,-2.036,-2.033,-2.0312,-2.0307,-2.0274,-2.0262,-2.0233,-2.0217,-2.0196,-2.0155,-2.0134,-2.0118,-2.0101,-2.009,-2.0094,-2.0092,-2.0076,-2.0074,-2.0073,-2.0065,-2.0063,-2.0092,-2.0092,-2.0092,0,-2.0425,-2.0392,-2.0371,-2.0349,-2.0332,-2.0314,-2.0293,-2.0275,-2.0238,-2.0226,-2.0226,-2.0172,-2.0151,-2.0117,-2.0112,-2.01,-2.0093,-2.0097,-2.0076,-2.0074,-2.0073,-2.0065,-2.0062,-2.0092,-2.0092,-2.0092,-2.0092,0,-2.0401,-2.0378,-2.0366,-2.0331,-2.0313,-2.0291,-2.0266,-2.025,-2.0237,-2.0219,-2.0189,-2.0163,-2.0132,-2.0123,-2.0111,-2.0086,-2.0086,-2.0081,-2.008,-2.0072,-2.0064,-2.0061,-2.0093,-2.0093,-2.0093,-2.0093,0,0,-2.0405,-2.0358,-2.0354,-2.0337,-2.0301,-2.0283,-2.026,-2.023,-2.0215,-2.0191,-2.0169,-2.0134,-2.0129,-2.011,-2.0095,-2.0081,-2.0067,-2.0077,-2.0076,-2.0075,-2.0036,-2.0039,-2.0036,-2.006,-2.0059,-2.0058,-2.0037,0,-2.0392,-2.0351,-2.0331,-2.0298,-2.0275,-2.0257,-2.0236,-2.0212,-2.0193,-2.0171,-2.015,-2.0125,-2.0121,-2.0109,-2.0094,-2.0072,-2.0058,-2.0073,-2.0038,-2.0037,-2.0045,-2.0032,-2.0035,-2.0017,-2.0035,-2.0034,-2.0034,0,-2.0373,-2.0347,-2.0312,-2.0278,-2.0267,-2.025,-2.0219,-2.0198,-2.0169,-2.0157,-2.0136,-2.0121,-2.0094,-2.0095,-2.0057,-2.0068,-2.0052,-2.0039,-2.0038,-2.0033,-2.0034,-2.0025,-2.0011,-2.0008,-2.0029,-2.0029,-2.003,0,-2.0377,-2.0335,-2.0307,-2.0294,-2.0253,-2.0241,-2.0223,-2.0195,-2.0177,-2.015,-2.0138,-2.0109,-2.0092,-2.0069,-2.0046,-2.0049,-2.001,-2.0009,-1.9997,-1.9998,-1.9989,-1.999,-1.9971,-1.9982,-1.9982,-1.9982,-1.9982,0,-2.0365,-2.0344,-2.0309,-2.0292,-2.0267,-2.0243,-2.0219,-2.0199,-2.0174,-2.0152,-2.0134,-2.0114,-2.0085,-2.006,-2.0042,-2.0012,-2.0006,-1.9994,-1.9989,-1.9995,-1.9996,-1.9983,-1.9984,-1.9981,-1.9981,-1.9981,-1.9981,0,-2.0366,-2.0342,-2.0311,-2.0275,-2.0265,-2.0248,-2.0217,-2.0199,-2.0179,-2.0151,-2.0143,-2.0112,-2.0082,-2.0057,-2.0018,-2.0006,-1.9974,-1.9969,-1.9984,-1.9981,-1.997,-1.9971,-1.9941,-1.9935,-1.9952,-1.9951,-1.9951,0,-2.036,-2.0343,-2.0304,-2.0288,-2.0271,-2.0246,-2.0227,-2.0203,-2.0184,-2.0148,-2.0134,-2.0103,-2.0077,-2.003,-2.0003,-1.9972,-1.9966,-1.9957,-1.9961,-1.9966,-1.9963,-1.9964,-1.9961,-1.9957,-1.9957,-1.9957,-1.9957,0,-2.035,-2.0338,-2.0313,-2.0283,-2.0261,-2.0236,-2.0211,-2.0198,-2.0168,-2.0148,-2.0117,-2.0097,-2.0056,-2.0024,-1.999,-1.9971,-1.9958,-1.9956,-1.9951,-1.9956,-1.9964,-1.9958,-1.9982,-1.9956,-1.9956,-1.9956,-1.9956,-1.9956,-2.0346,-2.0329,-2.0299,-2.027,-2.0248,-2.0224,-2.0205,-2.0183,-2.0156,-2.0121,-2.0108,-2.0076,-2.0045,-1.9998,-1.9978,-1.9952,-1.995,-1.9944,-1.9942,-1.994,-1.994,-1.997,-1.9946,-1.9946,-1.9946,-1.9946,-1.9946,0,-2.0334,-2.0313,-2.0287,-2.0251,-2.0228,-2.0219,-2.0189,-2.017,-2.0142,-2.0115,-2.0088,-2.0052,-2.002,-1.9991,-1.9958,-1.9942,-1.9935,-1.9934,-1.9934,-1.9929,-1.9945,-1.9951,-1.994,-1.994,-1.994,-1.994,-1.994,-1.994,-2.0325,-2.0295,-2.028,-2.0238,-2.0217,-2.0185,-2.0169,-2.0146,-2.0124,-2.0083,-2.0057,-2.0038,-2.0009,-1.9973,-1.9943,-1.9935,-1.9923,-1.9923,-1.9913,-1.9928,-1.9929,-1.993,-1.9935,-1.9921,-1.9921,-1.99,-1.99,-1.99]},{"header":{"parameterUnit":"m.s-1","parameterCategory":1,"la1":30.2991,"la2":30.254,"lo1":-89.0895,"lo2":-89.0444,"dy":0.0017,"dx":0.0017,"nx":28,"ny":28,"refTime":"2025-08-13T03:00:00:Z","depth":0,"parameterNumber":3,"parameterNumberName":"V-component_of_WINDS"},"data":[0,0,0,0,0,0,0,0,0,0,0,0,0,0,0,0,0,0,0,0,0,0,0,0,0,0,0,0,0,0,0,0,0,0,0,0,0,0,0,0,0,0,0,0,0,0,0,0,0,0,0,0,0,0,0,0,0,0,2.7438,2.744,0,2.7609,2.7611,2.7613,2.7606,2.7604,2.7601,2.7599,2.7774,2.778,2.7787,0,0,0,0,0,0,0,0,0,0,0,0,0,2.7107,2.7113,2.7438,2.744,2.7442,2.7609,2.7611,2.7613,2.7607,2.7604,2.7601,2.7598,2.7771,2.7779,2.7788,0,0,0,0,0,0,0,0,0,0,0,0,0,2.7261,2.7115,2.7438,2.7459,2.7463,2.7608,2.7611,2.7614,2.7607,2.7604,2.76,2.7597,2.7769,2.7779,2.7789,2.7924,0,0,2.782,2.7825,0,0,0,0,0,0,0,0,2.7253,2.7273,2.7454,2.7458,2.7462,2.7583,2.7558,2.7718,2.7608,2.7552,2.7599,2.7595,2.7713,2.7728,2.7767,2.7932,2.794,2.7821,2.7827,2.7832,2.7835,0,0,0,0,0,0,0,2.7242,2.7266,2.7506,2.7456,2.7462,2.746,2.7478,2.7588,2.7651,2.7557,2.7557,2.7577,2.7714,2.7757,2.7771,2.7942,2.7821,2.783,2.7836,2.784,2.8229,2.8233,0,0,0,0,0,0,2.7227,2.7257,2.75,2.7511,2.7346,2.7469,2.7489,2.7548,2.7649,2.7661,2.758,2.7576,2.7742,2.7759,2.7778,2.7944,2.7832,2.7841,2.7847,2.8225,2.823,2.8234,0,0,0,0,0,0,2.7219,2.7248,2.7493,2.7384,2.7415,2.7479,2.7544,2.7553,2.7596,2.7667,2.7678,2.7613,2.774,2.7763,2.7888,2.795,2.7846,2.7855,2.822,2.8226,2.8232,2.8277,0,0,0,0,0,0,2.721,2.7246,2.7298,2.7385,2.7421,2.7601,2.7548,2.7559,2.7614,2.761,2.77,2.7712,2.7739,2.7873,2.7898,2.7962,2.7863,2.8215,2.8223,2.823,2.827,2.8284,2.8296,0,0,0,0,0,2.7198,2.7303,2.73,2.733,2.7487,2.7605,2.7625,2.7654,2.7619,2.7672,2.7718,2.7709,2.7939,2.7886,2.7914,2.7982,2.8211,2.822,2.8229,2.8265,2.8281,2.8296,0,0,0,0,0,0,2.722,2.7315,2.7313,2.7449,2.7519,2.7603,2.7671,2.767,2.7751,2.7745,2.7777,2.7797,2.7923,2.7965,2.7904,2.812,2.8071,2.8086,2.8087,2.8104,2.8116,2.8104,2.7872,0,0,0,0,0,2.7241,2.7328,2.7406,2.7519,2.7554,2.7607,2.7659,2.7675,2.7749,2.7778,2.7833,2.7905,2.7993,2.8051,2.8136,2.8277,2.8297,2.8338,2.835,2.836,2.8373,2.8452,2.8472,2.8265,2.8265,2.8265,0,0,2.7285,2.7347,2.74,2.7525,2.7581,2.7672,2.7632,2.7728,2.7796,2.7793,2.7915,2.7958,2.804,2.8174,2.8235,2.8213,2.8435,2.8372,2.838,2.8387,2.8464,2.8483,2.8501,2.8271,2.827,2.8269,0,0,2.741,2.7466,2.7567,2.7625,2.771,2.7745,2.7769,2.7854,2.7883,2.8005,2.8006,2.8086,2.8238,2.8297,2.8347,2.8497,2.8493,2.8524,2.859,2.8667,2.8683,2.8698,2.8753,2.8772,2.8537,2.8537,2.8537,0,2.7454,2.759,2.7619,2.7717,2.7772,2.7775,2.7878,2.7932,2.8041,2.8079,2.8052,2.8244,2.8299,2.8447,2.8484,2.8524,2.8554,2.8514,2.8679,2.8694,2.8708,2.876,2.8781,2.854,2.854,2.854,2.8539,0,2.764,2.7734,2.7805,2.7911,2.7975,2.8075,2.8119,2.818,2.8191,2.8229,2.8355,2.8421,2.8521,2.8557,2.8569,2.8708,2.8692,2.8672,2.8623,2.873,2.878,2.88,2.8545,2.8544,2.8543,2.8542,0,0,2.7783,2.7905,2.7931,2.798,2.8076,2.8149,2.825,2.8348,2.84,2.8475,2.8561,2.869,2.8672,2.8729,2.8747,2.8814,2.8931,2.8786,2.8789,2.8812,2.909,2.9105,2.9128,2.8929,2.8932,2.8936,2.9083,0,2.792,2.8098,2.8128,2.8285,2.8373,2.8377,2.8465,2.8533,2.8571,2.8652,2.8694,2.8785,2.8754,2.8789,2.8855,2.8902,2.8987,2.8892,2.9009,2.9013,2.8989,2.9154,2.917,2.9306,2.9103,2.9106,2.9109,0,2.8102,2.8184,2.8349,2.8434,2.8473,2.8551,2.8644,2.8721,2.8799,2.8822,2.8886,2.8897,2.9002,2.8949,2.9095,2.903,2.9079,2.911,2.9116,2.9128,2.9067,2.9171,2.935,2.9371,2.914,2.9137,2.9135,0,2.8192,2.8343,2.8462,2.8503,2.8605,2.866,2.8705,2.878,2.8837,2.8919,2.8957,2.9049,2.91,2.9171,2.9207,2.9165,2.9352,2.9301,2.9374,2.9374,2.9414,2.9411,2.9603,2.9445,2.9444,2.9444,2.9443,0,2.8341,2.8443,2.8503,2.8577,2.8691,2.8724,2.8837,2.888,2.8947,2.9029,2.9038,2.9115,2.9158,2.9241,2.927,2.9388,2.941,2.9432,2.9439,2.9432,2.9429,2.9465,2.9457,2.9449,2.9448,2.9447,2.9446,0,2.8461,2.8505,2.8635,2.8722,2.8746,2.8826,2.89,2.8972,2.901,2.9114,2.9141,2.9201,2.93,2.9343,2.9464,2.9484,2.9618,2.9618,2.9592,2.9595,2.9666,2.9659,2.9889,2.9922,2.974,2.9742,2.9743,0,2.8553,2.8632,2.8727,2.8783,2.883,2.892,2.8979,2.9015,2.9077,2.9172,2.9233,2.9332,2.9414,2.9572,2.9626,2.972,2.9722,2.9796,2.9736,2.9727,2.9725,2.972,2.9728,2.9807,2.9809,2.9811,2.9812,0,2.8714,2.8732,2.8817,2.8911,2.8981,2.9057,2.913,2.9175,2.9224,2.9292,2.9394,2.9457,2.9582,2.9681,2.9778,2.9825,2.9827,2.983,2.9853,2.9847,2.9829,2.9841,2.9623,2.9825,2.9824,2.9823,2.9822,2.9821,2.8823,2.8894,2.8972,2.9067,2.9126,2.9195,2.9268,2.9315,2.9401,2.9505,2.9522,2.9631,2.9708,2.9839,2.989,2.9976,2.9958,2.999,2.9998,3.0005,3.001,2.9815,2.9994,2.9993,2.9993,2.9993,2.9993,0,2.8985,2.9036,2.9123,2.9226,2.9301,2.9297,2.9378,2.9442,2.9537,2.961,2.969,2.9808,2.9904,2.9967,3.0065,3.0122,3.0125,3.0146,3.0143,3.0154,3.002,2.9992,3.0142,3.0142,3.0142,3.0142,3.0142,3.0141,2.9078,2.9197,2.9226,2.9375,2.9425,2.9532,2.958,2.9644,2.9702,2.9833,2.9913,2.9954,3.0023,3.0126,3.0214,3.023,3.0266,3.0289,3.0304,3.0178,3.0163,3.0148,3.0121,3.0296,3.0296,3.043,3.0431,3.0432]}]]